Regional Weather Roundup
Issued by NWS Sterling, VA

Home | Current Version | Previous Version | Graphics & Text | Print | Product List | Glossary On
Versions: 1 2 3 4 5 6 7 8 9 10 11 12 13 14 15 16 17 18 19 20 21 22 23 24 25 26 27 28 29 30 31 32 33 34 35 36 37 38 39 40 41 42 43 44 45 46 47 48 49 50
000
ASUS41 KLWX 030710
RWRLWX

REGIONAL WEATHER ROUNDUP
NATIONAL WEATHER SERVICE BALTIMORE MD/WASHINGTON DC
300 AM EDT SUN MAY 03 2015

Note: "FAIR" indicates few or no clouds below 12,000 feet
with no significant weather and/or obstructions to visibility.
 TC=TEMPERATURE CELSIUS

 * =Non NWS site. Station does not report precipitation (e.g. rain,
    snow, etc.), thunder, or fog.

DCZ001-MDZ009-015-VAZ040>042-051-053>054-030800-
WASHINGTON METRO

CITY           SKY/WX    TMP DP  RH WIND       PRES   REMARKS
WASHINGTON NAT MOCLDY    58  50  75 S7        30.04R
DULLES         PTCLDY    49  42  77 CALM      30.04S
ANDREWS AFB    CLOUDY    54  46  73 SW7       30.02S
FT BELVOIR     PTCLDY    46  45  95 CALM      30.04S
QUANTICO       CLEAR     58  44  60 W3        30.04F
COLLEGE PARK*  PTCLDY    50  48  93 CALM      30.02S
LEESBURG*      CLEAR     55  45  67 SW6       30.04S
MANASSAS*      CLEAR     46  45  93 CALM      30.05S
GAITHERSBURG*  MOCLDY    52  43  71 CALM      30.07S

$$

MDZ006>007-011-014-030800-
BALTIMORE METRO

CITY           SKY/WX    TMP DP  RH WIND       PRES   REMARKS
BWI AIRPORT    MOCLDY    55  45  68 CALM      30.01S
MD SCIENCE CTR   N/A     59  45  59 MISG      30.02S
MARTIN STATE   PTCLDY    54  50  87 CALM      30.02S
ANNAPOLIS      CLOUDY    57  46  66 CALM      30.01S
FORT MEADE*    MOCLDY    45  43  93 CALM      30.04S

$$

MDZ012-015-019>023-030800-
MARYLAND EASTERN SHORE

CITY           SKY/WX    TMP DP  RH WIND       PRES   REMARKS
OCEAN CITY     CLEAR     51  47  86 S5        30.05F
SALISBURY      CLEAR     46  43  89 CALM      30.04F
BAY BRIDGE AP*   N/A    N/A N/A N/A S6        30.02S
CAMBRIDGE*     CLEAR     54  52  94 S3        30.03S
EASTON*        CLEAR     55  55 100 S5        30.06S

$$

MDZ017>025-030800-
SOUTHERN MARYLAND

CITY           SKY/WX    TMP DP  RH WIND       PRES   REMARKS
PATUXENT RIVER CLEAR     55  49  80 W8        30.03S
ST INIGOES     CLEAR     52  48  86 CALM      30.03F
LEONARDTOWN*   CLEAR     54  46  76 W5        30.05S

$$

MDZ003>005-030800-
NORTH CENTRAL MARYLAND

CITY           SKY/WX    TMP DP  RH WIND       PRES   REMARKS
FREDERICK*     MOCLDY    52  41  66 S5        30.05S
HAGERSTOWN APT CLEAR     55  42  61 SE3       30.04S
WESTMINSTER*   CLEAR     57  37  47 W7        30.02S

$$

MDZ501>502-030800-
WESTERN MARYLAND

CITY           SKY/WX    TMP DP  RH WIND       PRES   REMARKS
OAKLAND*       PTCLDY    52  36  54 SW5       30.11S
CUMBERLAND*    CLEAR     48  41  76 CALM      30.12R

$$

VAZ025>031-030800-
SHENANDOAH VALLEY

CITY           SKY/WX    TMP DP  RH WIND       PRES   REMARKS
WINCHESTER*    PTCLDY    50  37  62 CALM      30.06S
FRONT ROYAL*   FAIR      54  43  66 S9        30.05S
LURAY*         FAIR      50  45  81 CALM      30.08S
NEW MARKET*    PTSUNNY   44  42  91 CALM      30.08S
STAUNTON*      CLEAR     45  42  91 CALM      30.12S
WAYNESBORO*    FAIR      46  42  87 CALM      30.10S

$$

WVZ021-048>050-054>055-030800-
EASTERN WEST VIRGINIA PANHANDLE

CITY           SKY/WX    TMP DP  RH WIND       PRES   REMARKS
MARTINSBURG    CLEAR     48  41  76 CALM      30.05S
PETERSBURG*    PTCLDY    43  39  85 CALM      30.11S

$$

VAZ036>039-050-030800-
CENTRAL FOOTHILLS

CITY           SKY/WX    TMP DP  RH WIND       PRES   REMARKS
CHARLOTTESVILL MOCLDY    52  44  74 CALM      30.07S
CULPEPER*      NOT AVBL
ORANGE*        CLEAR     54  45  71 S6        30.07S
GORDONSVILLE*  FAIR      45  43  93 SW5       30.06S
WARRENTON*     FAIR      43  43 100 CALM      30.05R

$$

VAZ055>057-030800-
NORTH AND CENTRAL PIEDMONT

CITY           SKY/WX    TMP DP  RH WIND       PRES   REMARKS
FREDERICKSBRG* CLEAR     49  49 100 CALM      30.04S
STAFFORD*      CLEAR     45  32  60 CALM      30.08S

$$

NCZ024-NYZ072-PAZ021-071-VAZ022-071-030800-
OTHER REGIONAL OBSERVATIONS

CITY           SKY/WX    TMP DP  RH WIND       PRES   REMARKS
NEW YORK CITY  CLEAR     52  35  52 W3        30.06S
PHILADELPHIA   MOCLDY    51  43  74 E5        30.04S
PITTSBURGH     PTCLDY    52  41  66 CALM      30.05F
ROANOKE        CLEAR     47  42  83 CALM      30.14S
RICHMOND       CLEAR     59  47  64 W6        30.06S
RALEIGH        PTCLDY    50  47  89 CALM      30.11F

$$

ANZ530>537-030800-
MARINE OBSERVATIONS

STATION/POSITION TIME  TEMP    WIND        PRES
                       AIR SEA DIR/SP/G
                 (UTC) (F)     (DEG/KT/KT) (MB)
THOMAS PT LIGHT  0700   60 57  200/  7/  7 1017.1F
BALT KEY BRIDGE  0600   59     220/  5/  7 1016.0F
COVE POINT       0600   60     270/ 13/ 15 1017.4F
LEWISETTA        0600   59 62              1016.9F
SOLOMONS ISLAND  0612      58                N/A
PINEY POINT      0600          280/  8/  9   N/A

$$




USA.gov is the U.S. government's official web portal to all federal, state and local government web resources and services.